User: anonymous   Login
Location: Unspecified
(0.0000°N, 0.0000°E)
Time: 03:05:31
(UTC+00:00)
Language:

GGSE 4 - Orbit

View from above orbital plane
View from above orbital plane
View from above satellite
View from above satellite

Ground track
Ground track

The orbit data is extracted from the following two-line orbital elements,

1  2828U 67053C   18116.63870125 +.00000008 +00000-0 +43930-4 0  9991
2  2828 069.9715 325.7480 0005346 069.9726 346.2246 13.97403140592763
Epoch (UTC): 26 April 2018 15:19:43
Eccentricity: 0.0005346
inclination: 69.9715°
perigee height: 899 km
apogee height: 906 km
right ascension of ascending node: 325.7480°
argument of perigee: 69.9726°
revolutions per day: 13.97403140
mean anomaly at epoch: 346.2246°
orbit number at epoch: 59276

The dashed part of the orbit path shows where the satellite is in the earth's shadow,  

DLR